Location: *
(32.8667°N, 13.1833°E)
Time: 20:02:15
(UTC+00:00)

Cosmos 1980 Rocket - Pass Details

Date: 18 July 2019
Orbit: 830 x 849 km, 71.0° (Epoch: 24 August)

Event Time Altitude Azimuth Distance (km) Brightness Sun altitude
Rises 19:15:50 0° 227° (SW) 3,377 5.5 -11.8°
Reaches altitude 10° 19:18:35 10° 239° (WSW) 2,443 4.9 -12.3°
Maximum altitude 19:23:22 29° 298° (WNW) 1,500 4.4 -13.1°
Drops below altitude 10° 19:28:11 10° 357° (N) 2,444 5.2 -13.9°
Sets 19:30:57 0° 9° (N) 3,379 5.7 -14.4°
